Weather History for Miami, FL

Change the Weather History Date:

Monday, March 25, 2013

  Actual Average Record
Temperature  
Mean Temperature 73 °F 73 °F  
Max Temperature 82 °F 81 °F 92 °F (1907)
Min Temperature 64 °F 66 °F 48 °F (1915)
Degree Days  
Heating Degree Days 0 0  
Month to date heating degree days 24 8  
Since 1 July heating degree days 60 124  
Cooling Degree Days 8 9  
Month to date cooling degree days 119 193  
Year to date cooling degree days 598 515  
Growing Degree Days 26 (Base 50)    
Moisture  
Dew Point 61 °F    
Average Humidity 64    
Maximum Humidity 94    
Minimum Humidity 33    
Precipitation  
Precipitation T in 0.10 in 1.49 in (2014)
Month to date precipitation 0.81 2.33  
Year to date precipitation 3.20 6.20  
Snow  
Snow 0.00 in - - ()
Month to date snowfall 0.0  
Since 1 July snowfall 0.0  
Snow Depth 0.00 in    
Sea Level Pressure  
Sea Level Pressure 29.86 in    
Wind  
Wind Speed 8 mph (WNW)    
Max Wind Speed 14 mph    
Max Gust Speed 22 mph    
Visibility 10 miles    
Events Rain    
T = Trace of Precipitation, MM = Missing Value Source: NWS Daily Summary

Daily Weather History Graph

Daily Weather History Graph

Search for Another Location

Airport:

Trip Planner

Search our weather history database for the weather conditions in past years. The results will help you decide how hot, cold, wet, or windy it might be!

Date:

Astronomy

Mar. 25, 2013 Rise Set
Actual Time 7:19 AM EDT 7:34 PM EDT
Civil Twilight 6:56 AM EDT 7:57 PM EDT
Nautical Twilight 6:29 AM EDT 8:24 PM EDT
Astronomical Twilight 6:02 AM EDT 8:51 PM EDT
Moon 6:10 PM EDT (3/25) 5:53 AM EDT (3/25)
Length of Visible Light 13h 01m
Length of Day
12h 15m
Waxing Gibbous, 96% of the Moon is Illuminated
Mar 25
Waxing Gibbous
Mar 27
Full
Apr 3
Last Quarter
Apr 10
New
Apr 18
First Quarter

Hourly Weather History & Observations

Time (EDT) Temp. Heat Index Dew Point Humidity Pressure Visibility Wind Dir Wind Speed Gust Speed Precip Events Conditions
12:53 AM 79.0 °F - 71.1 °F 77% 29.80 in 10.0 mi SW 6.9 mph - N/A   Overcast
1:53 AM 78.1 °F - 71.1 °F 79% 29.79 in 10.0 mi SW 5.8 mph - 0.00 in Rain Light Rain
2:53 AM 78.1 °F - 72.0 °F 81% 29.78 in 10.0 mi SW 8.1 mph - 0.00 in   Mostly Cloudy
3:53 AM 77.0 °F - 72.0 °F 84% 29.78 in 10.0 mi WSW 6.9 mph - N/A   Overcast
4:02 AM 77.0 °F - 71.6 °F 83% 29.77 in 10.0 mi WSW 8.1 mph - 0.00 in Rain Light Rain
4:53 AM 75.9 °F - 72.0 °F 87% 29.78 in 10.0 mi West 6.9 mph - 0.00 in   Mostly Cloudy
5:22 AM 75.2 °F - 71.6 °F 89% 29.77 in 10.0 mi West 6.9 mph - N/A   Mostly Cloudy
5:46 AM 75.2 °F - 73.4 °F 94% 29.78 in 10.0 mi West 5.8 mph - N/A   Overcast
5:53 AM 75.9 °F - 73.0 °F 91% 29.78 in 10.0 mi West 4.6 mph - N/A   Overcast
6:53 AM 75.0 °F - 72.0 °F 90% 29.79 in 10.0 mi NW 8.1 mph - N/A   Mostly Cloudy
7:11 AM 75.2 °F - 71.6 °F 89% 29.80 in 10.0 mi WNW 5.8 mph - N/A   Overcast
7:53 AM 75.0 °F - 71.1 °F 87% 29.83 in 10.0 mi SW 3.5 mph - N/A   Overcast
8:53 AM 77.0 °F - 64.9 °F 66% 29.86 in 10.0 mi Variable 3.5 mph - N/A   Overcast
9:53 AM 77.0 °F - 64.0 °F 64% 29.88 in 10.0 mi NW 6.9 mph - N/A   Mostly Cloudy
10:53 AM 75.9 °F - 63.0 °F 64% 29.90 in 10.0 mi WNW 8.1 mph - N/A   Mostly Cloudy
11:53 AM 78.1 °F - 61.0 °F 56% 29.90 in 10.0 mi NW 8.1 mph - N/A   Mostly Cloudy
12:53 PM 77.0 °F - 59.0 °F 54% 29.90 in 10.0 mi NW 10.4 mph - N/A   Mostly Cloudy
1:53 PM 79.0 °F - 59.0 °F 50% 29.88 in 10.0 mi NW 5.8 mph - N/A   Partly Cloudy
2:53 PM 81.0 °F 80.4 °F 53.1 °F 38% 29.87 in 10.0 mi NW 10.4 mph 17.3 mph N/A   Overcast
3:53 PM 79.0 °F - 55.0 °F 44% 29.86 in 10.0 mi NNW 10.4 mph 17.3 mph N/A   Overcast
4:53 PM 80.1 °F 80.0 °F 54.0 °F 40% 29.86 in 10.0 mi NNW 9.2 mph - N/A   Mostly Cloudy
5:53 PM 79.0 °F - 48.9 °F 35% 29.88 in 10.0 mi NNW 6.9 mph - N/A   Mostly Cloudy
6:53 PM 77.0 °F - 51.1 °F 40% 29.90 in 10.0 mi NNW 8.1 mph - N/A   Mostly Cloudy
7:53 PM 75.9 °F - 50.0 °F 40% 29.93 in 10.0 mi North 5.8 mph - N/A   Mostly Cloudy
8:53 PM 73.9 °F - 48.9 °F 41% 29.95 in 10.0 mi NNE 6.9 mph - N/A   Mostly Cloudy
9:53 PM 73.0 °F - 42.1 °F 33% 29.97 in 10.0 mi NNW 10.4 mph 17.3 mph N/A   Mostly Cloudy
10:53 PM 70.0 °F - 41.0 °F 35% 29.99 in 10.0 mi NW 6.9 mph - N/A   Scattered Clouds
11:53 PM 66.9 °F - 37.0 °F 33% 30.01 in 10.0 mi NW 10.4 mph 17.3 mph N/A   Scattered Clouds